Tracking 28096 objects as of 29-Sep-2023
HD Live streaming from Space Station
objects crossing your sky now

STARLINK-30299

Track STARLINK-30299 now!
10-day predictions
STARLINK-30299 is classified as:


NORAD ID: 57650
Int'l Code: 2023-122U
Perigee: 559.6 km
Apogee: 560.8 km
Inclination: 43.0 °
Period: 95.7 minutes
Semi major axis: 6931 km
RCS: Unknown
Launch date: August 17, 2023
Source: United States (US)
Launch site: AIR FORCE EASTERN TEST RANGE (AFETR)
Your satellite tracking list
Your tracking list is empty




NASA's NSSDC Master Catalog

Two Line Element Set (TLE):
1 57650U 23122U   23271.43794293 -.00000590  00000-0 -26898-4 0  9992
2 57650  43.0008 268.3124 0000874 260.0165 100.0579 15.04491197  7803
Source of the keplerian elements: AFSPC